GEFSMA_850_meantemp_012.txt.gz
Temperature
13 13 13 12 12 13 13 13 13 13 13 13 13 12 11 11 10 10 10 10 10 10 9 9 9 9 9 9 9 10 10 10 10 10 10 10 10 10 10 11 11 11 11
13 13 13 12 12 12 12 13 13 13 13 13 12 11 11 10 9 9 9 9 9 9 9 9 9 9 9 9 9 9 10 10 10 10 10 10 10 10 10 10 10 10 11
13 13 13 12 12 12 12 13 13 13 13 12 12 11 10 10 9 8 8 8 8 8 9 9 9 9 9 9 9 9 9 9 10 10 10 10 10 10 10 10 10 10 10
13 13 13 12 12 12 12 12 12 12 12 12 12 11 10 9 9 8 7 7 7 8 8 8 8 8 8 9 9 9 9 9 9 9 9 9 10 10 9 9 9 9 10
13 13 12 12 12 12 12 12 12 12 12 12 11 11 10 9 8 8 7 7 7 7 7 7 8 8 8 8 8 8 8 8 8 7 7 7 8 8 8 7 7 6 7
13 13 12 12 12 12 12 12 12 11 11 11 11 10 9 8 8 7 7 7 7 7 7 7 7 7 7 7 7 7 7 6 6 6 5 5 5 6 6 6 5 5 4
13 12 12 12 12 12 11 11 11 11 11 11 10 9 8 8 8 7 7 7 7 6 6 6 7 7 7 6 6 6 6 5 5 5 4 4 4 4 4 3 3 3 3
13 12 12 12 12 12 11 11 11 10 10 10 10 9 8 7 7 7 7 7 6 6 6 6 6 6 6 6 6 5 5 5 5 4 3 3 3 3 3 2 2 2 3
12 12 11 11 11 11 11 11 10 10 9 9 9 8 8 7 7 7 6 6 5 5 5 5 5 5 4 4 5 4 4 4 4 2 2 1 1 2 1 1 1 2 2
12 12 11 11 11 11 11 10 10 9 9 8 8 7 6 6 5 5 5 5 4 4 4 4 4 4 4 3 3 3 3 2 2 1 0 -0 -0 -0 -0 -0 0 0 1
11 11 11 11 11 11 10 10 9 8 8 7 7 6 6 5 4 3 3 4 3 3 3 3 3 2 2 1 1 1 0 -0 -1 -1 -1 -2 -2 -1 -1 -1 -1 -1 -1
11 11 10 10 10 10 10 9 9 8 7 7 6 5 5 4 3 2 2 2 2 2 2 2 1 1 0 -0 -1 -1 -2 -3 -3 -3 -3 -3 -3 -2 -2 -2 -2 -2 -2
11 10 10 10 10 10 9 9 8 7 6 6 5 4 4 3 2 2 1 1 1 1 1 1 0 -0 -0 -1 -1 -2 -3 -4 -4 -4 -4 -4 -4 -4 -4 -4 -4 -4 -3
11 10 9 9 9 9 9 8 7 7 6 5 4 3 3 2 2 1 0 -0 -1 -1 -1 -1 -1 -1 -2 -2 -2 -3 -4 -4 -5 -5 -5 -4 -5 -5 -5 -5 -5 -4 -4
10 9 9 9 9 9 8 7 7 6 5 4 3 2 2 1 1 1 -0 -1 -2 -4 -3 -3 -3 -3 -3 -4 -4 -4 -5 -5 -5 -5 -5 -5 -5 -6 -5 -5 -5 -5 -5
10 9 9 9 8 8 7 6 6 5 4 3 2 2 1 1 1 -0 -1 -2 -3 -4 -5 -4 -5 -5 -5 -5 -6 -6 -6 -6 -6 -6 -6 -6 -6 -6 -6 -6 -6 -6 -5
9 9 9 8 8 7 6 6 5 4 3 2 1 1 0 0 -0 -1 -1 -2 -4 -5 -5 -5 -6 -6 -6 -6 -7 -7 -6 -6 -6 -7 -6 -6 -6 -6 -6 -6 -6 -6 -6
8 8 8 8 7 6 5 4 4 3 2 1 1 0 -0 -1 -1 -2 -3 -4 -5 -6 -6 -6 -7 -7 -7 -7 -7 -7 -7 -7 -7 -7 -7 -7 -7 -7 -7 -6 -6 -6 -6
8 8 7 7 6 5 4 4 3 2 1 1 0 -1 -1 -2 -2 -3 -5 -5 -6 -7 -7 -7 -8 -8 -7 -7 -7 -7 -7 -7 -8 -8 -7 -7 -7 -7 -7 -7 -7 -7 -7
8 7 7 6 5 4 3 3 2 1 1 0 -0 -1 -2 -3 -4 -5 -6 -6 -7 -8 -8 -8 -8 -8 -8 -8 -8 -8 -8 -8 -8 -8 -8 -7 -7 -7 -7 -7 -7 -7 -7
7 7 6 5 4 3 3 2 1 1 0 -0 -1 -2 -3 -4 -5 -6 -7 -7 -7 -8 -8 -8 -8 -8 -8 -8 -8 -8 -9 -9 -8 -8 -8 -7 -7 -7 -6 -7 -7 -7 -7
6 5 5 4 3 3 2 1 1 0 -0 -1 -1 -2 -4 -5 -6 -7 -7 -7 -8 -8 -8 -8 -8 -8 -9 -9 -9 -9 -9 -9 -9 -8 -8 -8 -7 -7 -7 -7 -7 -7 -7
5 4 3 3 2 2 1 0 -0 -1 -1 -2 -3 -4 -5 -6 -7 -7 -8 -8 -8 -8 -8 -8 -9 -9 -9 -9 -9 -9 -9 -9 -9 -8 -9 -8 -7 -8 -7 -8 -7 -7 -7
4 3 3 2 1 1 0 -0 -1 -1 -2 -3 -5 -6 -7 -7 -7 -8 -8 -8 -8 -8 -9 -9 -9 -9 -9 -9 -9 -9 -9 -9 -9 -8 -9 -9 -8 -8 -8 -7 -7 -6 -6
3 2 2 1 0 -0 -1 -1 -2 -2 -3 -5 -6 -7 -7 -8 -8 -8 -8 -8 -8 -9 -9 -9 -9 -9 -9 -9 -9 -9 -9 -9 -10 -9 -8 -9 -9 -9 -8 -7 -6 -6 -7
2 1 1 0 -1 -2 -3 -3 -4 -4 -5 -6 -7 -7 -8 -8 -8 -8 -8 -9 -9 -9 -9 -9 -8 -8 -8 -8 -8 -9 -10 -10 -10 -10 -8 -9 -10 -10 -10 -8 -7 -6 -6

GEFSMA_850_meantemp_018.txt.gz
Temperature
15 14 14 13 13 13 13 13 13 13 13 13 13 13 12 12 11 10 10 9 9 9 9 9 9 9 9 9 8 9 9 9 9 9 10 10 10 10 10 10 10 10 10
14 14 13 13 13 13 13 12 13 13 13 13 13 12 12 11 10 10 9 9 9 8 8 8 8 8 8 8 8 8 8 9 9 9 9 9 9 9 10 10 10 10 10
14 14 13 13 13 12 12 12 13 13 13 13 13 12 11 10 10 9 9 8 8 8 8 8 8 8 8 8 7 7 7 8 8 8 8 8 8 8 8 8 8 8 9
13 13 13 13 12 12 12 12 13 13 13 13 12 12 11 10 9 8 8 8 8 8 8 8 8 8 7 7 7 7 6 6 6 6 6 7 7 7 7 7 6 6 7
13 13 13 12 12 12 12 12 13 13 13 13 12 11 10 9 9 8 8 7 7 7 7 7 7 7 7 7 7 7 6 5 5 5 5 5 5 5 5 5 5 5 5
13 13 12 12 12 12 12 12 12 12 13 12 12 11 9 9 8 8 7 7 7 7 7 6 6 6 6 6 6 6 6 4 4 3 3 3 3 3 4 4 4 4 4
13 12 12 12 12 12 12 12 12 12 12 12 11 10 9 8 8 7 7 7 6 6 6 6 5 5 5 5 5 5 5 4 3 3 2 2 2 2 2 2 2 3 3
13 13 12 12 12 12 12 12 12 12 12 12 11 10 9 8 7 7 7 7 6 6 5 5 5 5 5 5 5 4 4 4 3 2 1 1 1 1 1 1 1 2 2
13 13 13 12 12 12 12 12 12 11 12 11 11 11 10 9 8 7 7 6 6 6 5 5 4 4 4 4 4 3 3 3 2 1 0 0 0 -0 -0 0 0 1 1
13 13 13 12 12 12 11 11 11 11 11 11 11 10 10 10 9 8 7 6 6 5 5 4 4 4 4 3 3 2 2 1 -0 -1 -1 -1 -1 -1 -1 -1 -0 -0 -0
13 13 13 12 12 11 11 11 11 11 11 10 10 10 9 9 8 7 7 6 5 5 4 4 4 3 2 2 2 1 0 -0 -1 -2 -2 -2 -2 -2 -1 -1 -1 -1 -1
13 12 12 12 11 11 11 11 11 10 10 10 9 9 8 8 7 6 5 5 4 5 4 4 3 2 2 1 1 -0 -1 -1 -2 -3 -3 -3 -3 -3 -2 -2 -2 -2 -3
13 12 12 11 11 11 11 10 10 10 9 9 8 8 7 6 5 4 3 3 2 3 3 3 2 1 1 -0 -1 -2 -2 -2 -3 -4 -4 -4 -4 -4 -4 -4 -4 -4 -3
13 12 11 11 10 10 10 10 9 9 8 8 8 7 6 5 4 3 2 1 1 1 1 1 1 0 -1 -2 -2 -2 -3 -3 -3 -4 -5 -5 -5 -5 -5 -5 -5 -4 -4
12 11 11 10 9 9 9 9 9 8 7 7 7 6 5 4 3 2 1 0 -1 -2 -2 -1 -1 -2 -2 -3 -3 -4 -4 -4 -4 -5 -6 -6 -6 -6 -6 -6 -5 -5 -5
11 11 10 9 8 8 8 8 7 7 7 6 6 5 4 3 2 1 1 0 -1 -2 -3 -3 -3 -3 -3 -4 -5 -5 -5 -5 -5 -5 -6 -6 -6 -6 -6 -6 -6 -6 -5
11 10 9 8 7 7 7 7 6 6 6 5 5 4 3 2 1 1 0 -0 -1 -2 -3 -4 -4 -4 -4 -4 -5 -5 -5 -5 -5 -6 -6 -6 -7 -7 -7 -6 -6 -6 -6
10 9 8 7 6 7 6 6 6 6 5 4 4 3 2 1 1 0 -1 -1 -2 -3 -4 -5 -5 -5 -5 -6 -6 -6 -6 -6 -6 -6 -6 -6 -6 -6 -6 -6 -6 -6 -6
9 8 6 6 6 6 5 5 5 5 4 3 2 2 1 1 0 -1 -1 -2 -3 -4 -5 -6 -7 -7 -7 -7 -7 -7 -7 -6 -6 -6 -5 -5 -5 -6 -6 -6 -6 -6 -6
7 6 5 5 5 5 4 4 4 3 3 2 2 1 1 0 -1 -2 -3 -4 -5 -6 -6 -7 -7 -8 -8 -7 -8 -8 -7 -6 -6 -6 -5 -6 -6 -6 -6 -6 -6 -6 -6
5 4 4 4 3 3 3 3 3 2 2 1 1 1 -0 -1 -2 -3 -4 -5 -6 -7 -7 -8 -8 -8 -8 -8 -8 -8 -8 -8 -7 -6 -6 -6 -6 -6 -5 -5 -6 -6 -6
3 3 3 3 3 3 2 2 2 1 1 1 0 -0 -1 -2 -3 -4 -5 -6 -7 -7 -8 -8 -8 -8 -8 -8 -8 -9 -9 -9 -9 -7 -8 -7 -7 -6 -6 -6 -6 -6 -6
2 1 1 2 2 2 2 1 1 1 0 0 -0 -1 -2 -3 -4 -5 -6 -7 -7 -8 -8 -8 -9 -9 -8 -8 -9 -9 -9 -9 -9 -8 -8 -8 -7 -6 -6 -6 -6 -6 -6
1 1 1 1 1 1 0 0 0 -0 -0 -1 -1 -2 -3 -4 -5 -6 -7 -8 -8 -8 -8 -8 -9 -9 -9 -9 -9 -9 -9 -9 -9 -8 -8 -8 -7 -7 -7 -6 -6 -6 -6
1 0 0 0 0 0 -0 -0 -1 -1 -2 -2 -3 -4 -5 -5 -6 -7 -8 -8 -8 -8 -8 -8 -8 -8 -8 -8 -9 -9 -9 -9 -9 -8 -8 -8 -7 -7 -7 -6 -6 -6 -6
0 -0 -0 -0 -0 -1 -1 -2 -3 -3 -3 -3 -4 -5 -6 -6 -8 -8 -8 -8 -9 -8 -8 -8 -7 -7 -7 -7 -7 -8 -8 -9 -10 -10 -8 -9 -9 -10 -10 -8 -7 -6 -6

GEFSMA_850_meantemp_024.txt.gz
Temperature
14 14 13 13 13 13 13 13 13 13 13 13 13 13 13 12 11 10 10 9 9 9 9 9 9 8 8 8 8 9 9 9 10 10 10 10 10 10 10 11 11 11 11
14 14 13 13 13 13 13 12 12 12 12 13 13 13 12 12 11 10 9 9 9 9 8 8 8 8 8 8 8 8 8 8 9 9 9 9 9 9 9 9 10 10 10
15 14 13 13 13 13 12 12 12 12 12 12 12 12 12 11 10 10 9 9 9 8 8 8 8 8 8 8 8 8 7 8 8 8 8 8 8 8 8 8 8 8 9
14 14 13 13 13 12 12 12 12 12 12 12 12 12 12 11 10 9 8 8 8 8 8 8 8 8 8 8 8 7 7 7 7 7 6 6 6 6 6 6 6 7 7
14 14 13 13 12 12 12 12 12 12 12 12 12 12 11 11 10 9 8 8 8 8 8 8 8 8 8 7 7 7 7 7 6 6 5 5 5 5 5 5 5 5 5
14 13 13 13 12 12 12 11 11 11 12 12 12 12 11 10 9 9 8 8 7 7 7 7 7 7 7 7 7 6 6 6 5 5 4 4 3 3 3 3 4 4 4
14 13 13 13 12 12 12 11 11 11 11 12 12 11 10 10 9 8 8 8 7 7 7 7 7 7 6 6 6 6 6 5 5 4 3 3 2 2 2 2 2 3 3
14 14 13 13 12 12 12 11 11 11 11 12 12 11 10 10 9 9 8 8 7 7 6 6 6 6 6 6 5 5 5 5 4 3 2 2 1 1 1 1 1 2 2
15 15 14 14 13 12 12 12 11 11 12 12 12 12 12 11 9 9 9 8 7 7 6 6 6 5 5 5 5 5 4 4 4 3 1 1 1 1 1 1 1 1 1
15 15 15 14 13 13 12 12 11 11 12 12 12 11 11 11 11 10 9 8 7 7 6 6 5 5 5 5 4 4 4 3 3 2 1 0 -0 -0 0 0 0 0 0
15 15 15 15 14 13 12 12 11 11 12 12 12 11 11 10 10 10 9 9 8 7 6 5 5 4 4 4 4 3 3 3 2 2 0 -0 -1 -1 -1 -1 -1 -1 -1
15 15 15 15 14 14 13 12 11 11 11 11 11 11 11 10 10 10 9 9 8 7 6 5 4 4 4 4 3 2 2 2 1 1 0 -1 -2 -2 -2 -2 -2 -2 -2
15 15 15 15 14 14 13 12 11 11 11 11 11 10 10 10 9 9 8 8 7 6 6 5 4 4 3 3 2 1 1 1 1 1 -0 -2 -2 -3 -3 -3 -3 -3 -3
15 15 15 15 14 14 12 11 11 10 10 10 10 9 9 9 8 8 8 7 5 5 5 5 4 3 2 1 -0 -0 -0 -0 -0 -0 -1 -2 -2 -2 -3 -4 -4 -4 -4
14 14 14 14 14 13 12 11 10 9 9 9 8 8 8 7 7 7 6 5 4 3 3 3 3 2 1 -0 -1 -1 -2 -2 -2 -2 -2 -2 -2 -3 -3 -4 -4 -4 -5
13 13 14 14 13 12 11 10 9 8 8 8 7 7 6 6 5 5 5 3 2 1 1 1 1 -0 -0 -1 -1 -2 -3 -3 -3 -3 -3 -3 -3 -3 -4 -4 -5 -5 -5
12 12 12 13 12 11 10 9 8 7 7 6 6 5 5 4 4 4 3 2 1 0 -0 -0 -1 -1 -1 -2 -2 -3 -3 -3 -3 -3 -3 -3 -4 -4 -4 -5 -5 -5 -5
10 10 10 10 10 10 9 8 7 6 6 5 4 4 3 3 2 2 1 0 -0 -1 -2 -2 -2 -3 -3 -3 -4 -4 -5 -5 -4 -4 -3 -4 -4 -4 -4 -5 -5 -6 -6
9 9 9 9 9 8 7 6 5 5 4 4 3 2 2 1 1 -0 -1 -1 -2 -2 -3 -4 -4 -4 -5 -5 -5 -6 -6 -5 -4 -4 -4 -4 -4 -4 -5 -5 -6 -6 -6
8 8 8 8 7 6 5 5 4 3 3 3 2 2 1 0 -1 -2 -2 -2 -3 -3 -4 -5 -5 -6 -6 -6 -7 -7 -7 -6 -5 -4 -4 -5 -5 -5 -5 -5 -5 -5 -5
7 7 6 6 5 4 4 3 3 3 2 2 1 1 0 -1 -2 -2 -2 -3 -4 -5 -5 -6 -7 -7 -7 -7 -7 -8 -8 -7 -6 -5 -5 -5 -5 -4 -4 -5 -5 -5 -5
5 5 4 3 3 2 2 2 2 2 2 1 1 -0 -1 -2 -2 -2 -3 -5 -6 -6 -7 -7 -7 -8 -8 -8 -8 -8 -8 -8 -9 -7 -7 -6 -5 -5 -5 -5 -5 -5 -5
3 2 2 1 1 1 1 2 2 2 1 0 -0 -2 -2 -2 -3 -4 -5 -5 -6 -6 -7 -8 -8 -8 -8 -8 -9 -9 -9 -9 -9 -8 -8 -6 -5 -5 -5 -5 -5 -5 -5
1 0 0 0 1 1 1 1 1 1 -0 -1 -2 -2 -2 -3 -4 -5 -6 -7 -7 -7 -7 -8 -8 -8 -9 -9 -9 -9 -9 -9 -8 -7 -7 -7 -5 -5 -6 -5 -5 -5 -5
0 -0 0 0 1 0 0 0 -0 -1 -2 -2 -3 -4 -4 -5 -5 -6 -8 -8 -8 -8 -8 -8 -8 -8 -9 -8 -9 -9 -8 -8 -8 -7 -7 -8 -6 -6 -6 -5 -5 -5 -5
0 0 0 0 0 -0 -1 -1 -2 -2 -3 -4 -4 -5 -6 -6 -7 -8 -9 -9 -9 -9 -9 -8 -8 -8 -8 -8 -8 -8 -8 -9 -9 -9 -7 -8 -8 -8 -8 -6 -6 -6 -6

GEFSMA_850_meantemp_030.txt.gz
Temperature
14 14 13 13 13 13 13 13 13 13 13 13 13 13 12 12 11 10 10 11 10 10 10 10 10 10 10 10 10 11 11 11 11 11 11 11 11 11 11 11 11 11 11
15 14 14 14 13 13 13 13 13 13 13 13 13 12 12 12 11 10 9 10 10 10 10 10 10 9 9 10 10 10 10 10 10 10 10 10 10 10 10 10 10 10 10
15 15 14 14 13 13 13 13 13 13 12 12 12 12 12 11 11 10 9 9 10 10 10 10 10 9 9 9 9 9 9 9 9 9 9 9 9 9 9 9 9 9 9
15 14 14 14 14 13 13 13 13 12 12 12 12 12 12 11 10 10 10 9 9 9 9 9 9 9 9 9 8 8 8 8 8 8 8 8 8 7 7 7 7 7 8
15 14 14 14 14 13 13 13 12 12 12 12 12 12 11 11 10 10 9 9 9 9 9 9 9 9 9 8 8 8 8 8 8 8 7 7 7 6 6 6 6 6 6
15 14 14 14 14 13 13 12 12 12 12 11 11 11 11 10 10 10 9 9 9 9 9 9 9 9 8 8 8 7 7 7 7 7 6 6 6 5 5 4 4 4 5
16 15 15 14 14 13 13 12 12 12 11 11 11 11 11 11 10 10 9 9 9 9 9 9 9 8 8 8 7 7 7 7 6 6 5 5 4 4 4 4 4 4 4
16 16 15 15 15 14 13 12 12 12 11 11 11 10 10 9 10 10 10 9 9 9 9 9 9 8 8 7 7 7 6 6 6 5 5 4 3 3 3 3 3 3 3
16 16 15 15 15 14 13 13 13 12 11 11 11 11 11 10 10 10 10 10 10 9 9 9 9 8 8 7 6 6 6 6 5 5 4 3 3 2 2 2 2 2 2
15 15 15 14 14 14 14 13 13 12 12 11 11 11 11 11 11 10 10 10 10 9 9 9 9 8 7 7 6 6 6 5 5 4 4 3 2 2 2 2 2 2 2
15 15 14 14 14 14 14 13 13 12 12 12 11 11 11 11 11 11 11 11 10 10 9 9 8 8 7 6 5 5 5 4 4 4 3 2 1 1 1 1 1 1 1
14 14 13 13 13 14 14 13 13 13 12 12 12 11 11 11 11 11 11 11 11 10 9 8 8 7 6 5 5 5 4 4 3 3 3 2 1 0 0 0 0 -0 -0
12 13 13 13 13 13 13 12 12 13 12 12 11 11 11 11 11 11 10 10 9 9 9 8 7 6 5 4 4 4 3 3 3 3 3 2 1 1 1 0 -0 -1 -1
12 12 12 12 12 12 11 11 11 11 11 11 11 10 10 10 9 9 9 9 8 7 7 6 6 5 4 3 3 2 2 2 2 2 2 2 1 1 1 1 -0 -1 -2
12 11 11 11 11 10 10 10 10 10 10 10 10 10 9 9 8 8 8 8 7 6 5 4 4 3 3 2 1 1 1 1 2 2 1 1 1 1 0 -0 -1 -1 -2
11 11 11 10 10 9 9 9 9 9 9 10 10 9 8 7 7 7 6 6 6 5 4 3 2 2 1 1 1 0 -0 -0 0 0 0 -0 -1 -1 -1 -2 -2 -2 -2
11 10 10 10 9 9 9 8 9 9 9 9 9 8 7 5 5 5 5 5 4 4 3 2 2 1 1 0 -0 -1 -1 -1 -2 -1 -1 -1 -2 -2 -2 -3 -3 -3 -3
10 10 9 9 8 8 8 8 8 8 8 8 7 6 5 4 4 4 4 3 3 3 2 1 1 0 -0 -1 -1 -1 -2 -2 -2 -2 -2 -2 -3 -3 -3 -3 -3 -4 -4
9 8 8 8 7 7 7 8 7 7 7 6 5 4 4 3 3 3 3 2 2 1 1 -0 -1 -1 -2 -2 -2 -3 -3 -4 -4 -3 -3 -3 -3 -3 -3 -4 -4 -4 -4
8 8 7 7 7 7 7 7 6 6 5 4 3 2 2 2 2 2 2 1 1 -0 -1 -2 -2 -3 -4 -4 -4 -5 -6 -6 -6 -5 -4 -4 -4 -4 -4 -4 -4 -4 -4
7 6 6 6 6 6 5 5 4 4 3 2 1 1 1 1 1 1 1 0 -1 -2 -2 -3 -4 -5 -6 -6 -6 -7 -7 -7 -7 -6 -5 -5 -5 -4 -4 -4 -4 -4 -4
5 5 5 4 4 3 3 2 2 1 1 1 1 1 1 1 1 0 -0 -1 -2 -3 -4 -5 -6 -6 -7 -7 -7 -8 -8 -8 -8 -7 -7 -7 -6 -5 -4 -4 -4 -4 -4
3 3 3 2 2 1 0 -0 -0 0 1 1 1 1 0 0 -0 -1 -2 -2 -3 -4 -5 -6 -7 -7 -7 -8 -8 -8 -8 -8 -8 -8 -8 -8 -6 -6 -5 -4 -4 -4 -4
1 1 0 0 -0 -1 -1 -0 -0 0 0 0 0 -0 -1 -1 -2 -2 -2 -3 -4 -5 -6 -7 -8 -8 -8 -8 -8 -8 -8 -9 -8 -8 -8 -8 -7 -7 -6 -5 -4 -4 -4
-0 -1 -1 -1 -1 -1 -1 -1 -1 -0 -1 -1 -2 -2 -2 -2 -3 -3 -4 -5 -6 -7 -7 -6 -7 -7 -7 -8 -8 -9 -8 -9 -9 -8 -8 -8 -7 -8 -7 -5 -4 -4 -4
-1 -1 -1 -1 -1 -1 -1 -2 -2 -2 -2 -2 -2 -3 -3 -3 -4 -6 -6 -7 -7 -7 -7 -7 -7 -7 -7 -7 -7 -8 -8 -9 -9 -8 -7 -8 -8 -8 -8 -5 -5 -5 -5

GEFSMA_850_meantemp_036.txt.gz
Temperature
14 14 14 14 14 14 14 14 14 14 14 14 14 13 13 13 12 12 13 12 12 12 12 11 11 11 11 11 12 12 12 12 12 11 11 11 11 11 11 11 11 10 10
14 14 14 14 14 13 13 13 13 13 13 13 13 13 13 12 12 12 12 12 12 12 12 11 11 11 11 11 11 11 11 11 11 11 11 11 11 10 10 10 10 10 9
14 14 14 14 14 13 13 13 13 13 13 13 13 13 13 12 12 12 12 12 12 12 12 11 11 11 10 11 11 11 11 11 11 11 11 10 10 10 10 9 9 9 9
14 14 14 14 14 13 13 13 13 12 13 13 13 13 13 12 12 11 12 12 12 12 12 11 11 11 10 10 10 11 11 10 10 10 10 10 10 9 9 8 8 8 8
14 14 14 14 14 13 13 13 13 13 13 13 13 12 12 12 12 11 11 11 12 12 12 11 11 11 10 10 10 10 10 10 10 10 10 10 9 9 8 7 7 7 6
15 14 14 13 13 13 13 13 13 12 12 12 12 12 12 12 12 12 11 11 11 11 12 11 11 11 10 10 10 10 10 10 10 10 9 9 9 8 8 7 6 6 6
15 15 14 13 13 13 13 13 12 12 12 11 11 11 11 11 11 11 11 11 11 11 11 12 11 11 10 10 10 10 9 9 9 9 9 9 8 8 7 7 6 6 5
15 14 14 13 13 13 13 12 12 12 12 11 11 11 10 10 10 11 11 11 11 11 11 11 11 11 10 10 10 9 9 9 8 8 8 8 8 8 7 6 6 5 5
14 14 13 13 12 12 12 12 12 12 12 11 11 11 11 11 11 11 11 11 10 10 10 10 10 10 10 10 10 9 9 8 8 8 8 7 7 7 6 5 5 4 4
14 14 13 13 12 12 12 12 12 12 11 11 11 10 11 11 11 11 10 10 10 9 10 10 9 9 9 9 9 9 9 8 7 7 7 7 6 6 5 4 4 4 4
13 13 13 13 12 12 12 12 12 11 11 11 11 11 10 10 10 11 11 10 10 9 9 9 8 8 8 8 8 8 8 7 7 6 6 6 5 5 4 4 4 4 3
13 13 13 12 12 12 11 11 11 11 11 11 10 10 10 9 10 10 10 11 10 10 8 7 7 7 6 6 6 7 7 6 6 6 6 5 4 4 4 4 4 3 3
12 12 12 12 12 12 11 11 11 11 11 10 10 10 9 9 9 9 9 9 9 8 7 6 5 5 5 5 5 5 5 5 5 5 5 4 4 4 4 4 4 3 3
12 12 12 12 11 11 11 11 10 10 10 10 10 9 9 9 9 8 8 8 7 6 6 5 4 4 4 3 3 4 4 4 4 4 4 4 4 4 3 3 3 3 2
11 11 11 11 11 11 10 10 10 10 9 9 9 9 9 8 8 8 8 7 6 5 4 4 4 4 4 3 3 3 3 3 3 3 3 3 3 3 2 2 2 2 2
10 10 10 10 10 10 10 9 9 9 9 8 8 8 8 8 8 8 7 6 5 5 4 4 3 4 3 3 3 3 3 3 3 2 2 2 2 1 1 1 1 1 1
8 9 9 9 9 9 9 8 8 8 8 8 8 8 7 7 7 7 6 6 4 4 3 3 3 3 3 2 2 2 2 2 2 1 1 1 0 0 -0 -0 -0 -0 -1
7 8 8 8 8 8 8 8 7 7 7 7 7 7 7 7 6 6 5 4 3 3 3 3 3 2 2 2 1 1 1 1 0 0 -0 -1 -1 -1 -1 -1 -2 -2 -2
7 7 7 7 7 7 7 7 7 6 6 6 6 6 5 5 5 4 3 3 2 2 2 2 2 2 1 1 1 0 -0 -1 -1 -1 -2 -2 -2 -3 -3 -3 -3 -3 -3
6 6 6 6 6 6 6 6 6 6 5 5 5 4 4 3 3 2 2 1 1 2 2 1 1 1 0 -0 -1 -1 -2 -2 -3 -3 -3 -3 -3 -3 -4 -4 -4 -4 -4
5 5 5 5 5 5 5 5 4 4 4 3 3 2 2 1 1 1 1 1 1 1 1 0 -0 -0 -1 -2 -3 -4 -4 -4 -4 -4 -4 -4 -4 -4 -4 -4 -4 -4 -4
4 4 4 4 4 3 3 3 3 2 2 1 1 0 0 -0 -0 -0 -0 0 -0 -0 -1 -1 -2 -3 -4 -5 -5 -6 -5 -5 -5 -4 -5 -4 -4 -4 -4 -4 -4 -4 -4
2 2 2 2 2 1 1 1 1 1 0 -0 -0 -0 -1 -0 -1 -1 -1 -1 -2 -2 -3 -3 -4 -4 -5 -6 -6 -6 -6 -6 -6 -6 -6 -5 -4 -4 -4 -4 -4 -4 -4
1 1 1 0 0 -0 -0 0 0 -0 -0 -0 -1 -1 -1 -1 -1 -2 -2 -2 -3 -3 -4 -5 -5 -5 -6 -6 -6 -6 -6 -6 -5 -6 -7 -6 -4 -4 -4 -3 -4 -4 -4
0 0 -0 -0 -0 -0 -1 -1 -1 -1 -1 -1 -1 -2 -2 -2 -2 -3 -3 -4 -4 -5 -6 -6 -6 -6 -6 -6 -6 -7 -7 -7 -6 -5 -6 -6 -5 -5 -4 -3 -3 -3 -4
-0 -0 -0 -0 -0 -1 -1 -1 -1 -1 -2 -2 -3 -3 -3 -4 -4 -4 -5 -5 -6 -7 -7 -7 -6 -6 -6 -6 -7 -7 -7 -7 -7 -7 -5 -6 -6 -7 -6 -3 -3 -3 -3

GEFSMA_850_meantemp_042.txt.gz
Temperature
16 16 16 16 15 15 15 15 15 15 15 15 15 14 14 14 14 14 14 13 13 13 13 13 13 13 13 13 13 13 13 12 12 12 12 12 12 12 12 12 12 12 11
16 16 16 15 15 15 15 14 14 14 14 14 14 14 14 14 14 14 13 13 13 13 13 12 12 12 12 12 12 12 12 12 12 12 12 12 12 12 12 12 12 11 11
15 15 15 15 15 14 14 14 14 14 14 13 13 13 13 13 13 13 13 13 13 13 12 12 12 12 11 11 12 12 12 12 12 12 12 12 12 12 11 11 11 11 11
15 15 15 15 15 14 14 14 13 13 13 13 13 13 12 12 13 13 13 13 12 12 12 12 12 11 11 10 10 11 11 11 11 11 11 11 11 11 11 11 11 10 10
15 15 15 15 14 14 14 13 13 13 13 13 12 12 12 12 12 12 12 12 12 12 12 11 11 11 11 10 9 10 10 11 11 11 11 11 11 11 10 10 10 10 9
15 15 14 14 14 13 13 13 13 13 13 13 12 12 12 12 11 12 12 12 11 11 11 11 11 11 10 10 9 9 9 9 10 10 10 10 10 10 10 9 9 9 9
15 14 14 14 14 14 13 13 13 13 13 13 12 12 12 11 11 11 11 11 11 11 11 11 11 10 10 10 9 9 8 8 8 9 9 9 9 9 9 8 8 8 8
14 14 14 14 14 13 13 13 13 13 13 12 12 12 11 11 12 12 11 11 11 11 11 10 10 10 10 9 9 8 8 7 7 7 7 7 7 7 7 7 7 7 7
14 14 14 13 13 13 13 13 13 12 12 12 12 11 11 11 12 12 12 11 11 11 11 10 10 9 9 8 8 8 7 7 6 6 6 6 6 6 6 6 6 6 6
14 13 13 13 13 13 13 13 12 12 12 12 12 11 11 11 11 11 11 11 11 11 10 10 9 9 8 8 7 7 7 6 6 5 5 4 4 4 4 4 4 5 5
13 13 13 13 13 12 12 12 12 12 12 11 11 11 11 10 10 10 10 10 11 11 10 10 9 8 8 7 7 6 6 5 5 5 4 4 4 3 3 3 4 4 4
13 13 13 12 12 12 12 12 12 11 11 11 11 10 10 10 9 9 9 9 9 10 9 9 9 8 7 6 6 5 5 4 4 4 3 3 3 3 3 3 3 3 3
12 12 12 12 12 12 12 11 11 11 11 10 10 10 10 9 9 9 9 8 8 8 8 8 7 7 6 6 5 4 4 3 3 3 3 2 2 2 3 3 3 3 3
11 11 11 11 11 11 11 11 10 10 10 10 10 9 9 9 8 8 8 7 7 7 6 6 6 6 6 5 4 3 3 3 2 2 2 2 2 2 2 2 2 2 2
9 10 10 10 10 10 10 10 10 10 10 9 9 9 8 8 8 8 7 7 6 6 6 6 5 5 5 4 3 3 2 2 2 2 2 1 1 1 1 1 1 1 1
8 8 8 9 9 9 9 9 9 9 9 8 8 8 8 7 7 7 7 6 6 6 5 5 5 4 4 3 2 2 2 2 1 1 1 1 1 0 0 0 -0 -1 -1
7 7 8 8 8 8 8 8 8 8 8 8 7 7 7 7 6 6 6 6 5 5 4 4 4 3 3 2 2 2 1 1 1 1 0 0 -0 -1 -1 -1 -1 -2 -2
7 7 7 7 7 7 7 7 7 7 7 7 7 6 6 6 5 5 5 5 4 4 3 3 3 3 2 2 1 1 1 1 0 0 -0 -0 -1 -2 -2 -2 -3 -3 -3
6 6 6 6 6 6 6 6 6 6 6 6 6 6 5 5 5 4 4 4 3 3 3 2 2 2 2 1 1 1 0 -0 -0 -1 -1 -2 -2 -3 -3 -3 -4 -4 -4
5 5 6 6 6 6 6 6 6 6 5 5 5 4 4 4 3 3 3 3 2 2 2 2 1 1 1 1 0 0 -0 -1 -1 -2 -2 -3 -3 -3 -3 -3 -3 -3 -3
5 5 5 5 5 5 5 5 5 4 4 3 3 3 2 2 2 2 1 1 1 1 1 1 1 0 0 -0 -0 -1 -1 -2 -3 -3 -3 -3 -4 -3 -3 -4 -3 -3 -3
4 4 4 4 4 4 3 3 3 3 2 2 2 1 1 1 0 0 -0 -0 0 -0 -0 -0 -0 -1 -1 -2 -2 -3 -3 -4 -4 -4 -4 -4 -4 -4 -4 -4 -3 -3 -3
3 2 2 2 2 2 2 2 1 1 1 1 0 0 0 -0 -0 -1 -1 -1 -1 -1 -1 -2 -2 -3 -3 -4 -4 -5 -5 -5 -5 -5 -5 -3 -3 -4 -3 -3 -3 -3 -3
2 2 2 1 1 1 1 1 1 0 0 -0 -0 -1 -1 -1 -1 -1 -1 -2 -2 -2 -3 -3 -4 -4 -4 -5 -5 -5 -6 -6 -5 -5 -6 -4 -3 -3 -3 -3 -3 -3 -3
1 1 1 1 1 1 0 0 -0 -0 -1 -1 -1 -1 -2 -2 -2 -2 -2 -3 -3 -3 -4 -4 -5 -5 -6 -6 -6 -6 -6 -6 -5 -5 -5 -5 -4 -4 -3 -2 -3 -3 -3
1 1 0 0 -0 -0 -1 -1 -1 -1 -2 -2 -2 -3 -3 -4 -4 -4 -4 -4 -5 -5 -5 -6 -6 -6 -6 -6 -6 -6 -6 -7 -7 -7 -6 -6 -6 -6 -5 -3 -3 -3 -3

GEFSMA_850_meantemp_048.txt.gz
Temperature
16 16 16 16 16 15 15 15 15 14 14 14 14 14 14 14 13 13 13 13 13 12 12 12 12 12 12 12 12 12 12 12 12 12 11 11 11 11 11 11 11 11 11
16 16 16 15 15 15 15 14 14 14 14 13 13 13 13 13 13 13 13 13 12 12 12 12 12 11 11 11 11 11 11 11 11 11 11 11 11 11 10 10 10 10 10
15 15 15 15 15 14 14 14 14 13 13 13 13 13 13 13 12 12 12 12 12 12 12 12 11 11 11 11 10 10 10 10 10 10 10 10 10 10 10 10 10 9 9
15 15 15 15 14 14 14 13 13 13 13 13 13 13 12 12 12 12 12 12 12 12 12 11 11 11 11 10 10 9 9 9 9 9 9 9 9 9 9 9 9 9 8
14 14 14 14 14 14 13 13 13 13 13 13 13 13 13 12 12 12 12 12 12 12 12 11 11 11 11 10 10 9 9 9 9 9 9 8 8 8 8 8 8 8 7
14 14 14 14 14 13 13 13 13 13 13 13 13 12 13 12 12 12 12 12 12 12 12 11 11 11 11 10 10 9 8 8 8 8 8 8 8 7 7 7 7 7 6
14 14 14 14 14 13 13 13 13 13 13 13 12 12 12 12 12 12 12 12 12 12 12 11 11 10 10 10 9 9 8 7 7 7 7 7 7 6 6 6 6 6 5
14 14 14 14 14 13 13 13 13 13 12 12 12 11 11 11 12 12 12 12 12 11 11 11 11 10 10 9 9 9 8 7 7 6 6 6 6 6 5 5 5 5 5
14 14 14 14 13 13 13 13 13 12 12 12 12 11 11 11 11 11 11 11 11 11 11 11 10 10 9 9 8 8 7 7 6 6 6 5 5 5 5 4 4 4 4
14 14 14 13 13 13 13 13 12 12 12 11 11 11 10 10 10 10 10 10 10 10 10 10 10 9 9 8 8 7 7 6 6 5 5 5 5 4 4 4 4 4 4
13 13 13 13 13 12 12 12 12 12 12 11 11 10 10 10 10 9 9 9 9 9 9 9 9 9 8 8 8 7 6 6 5 5 4 4 4 4 4 4 4 4 4
12 12 12 12 12 12 12 11 11 11 11 11 10 10 10 9 9 9 8 8 8 8 8 8 8 8 8 7 7 7 6 5 5 4 4 4 4 3 4 3 3 4 4
11 11 11 11 11 11 11 11 10 10 10 10 10 9 9 9 8 8 8 7 7 7 7 8 7 7 7 7 6 6 5 5 4 4 4 3 3 3 3 3 3 3 3
10 10 10 10 10 10 10 10 9 9 9 9 9 9 8 8 8 7 7 7 6 6 6 6 6 6 6 6 6 5 5 4 4 3 3 3 3 2 2 2 2 2 2
9 9 9 9 9 9 9 9 9 8 8 8 8 8 8 8 7 7 7 6 6 5 5 5 5 5 5 5 5 4 4 3 3 2 2 2 2 2 2 2 2 1 1
8 8 8 8 8 8 8 8 8 8 7 7 7 7 7 7 7 6 6 6 5 5 4 4 4 4 4 4 4 3 3 2 2 2 1 1 1 1 1 1 1 1 1
7 7 7 7 7 7 7 7 7 7 7 7 7 7 7 6 6 6 6 5 5 5 4 4 4 4 4 3 3 2 2 2 1 1 1 1 0 0 0 0 0 0 0
6 6 6 6 6 6 6 6 6 6 6 6 6 6 6 6 6 5 5 5 4 4 4 3 3 3 3 2 2 2 1 1 1 1 0 0 0 0 0 0 0 -0 -0
5 5 5 5 5 6 6 6 6 6 6 6 5 5 5 5 5 4 4 4 3 3 3 2 2 2 2 2 1 1 1 1 0 0 0 -0 -0 -0 -0 -0 -0 -1 -1
4 4 5 5 5 5 5 5 5 5 5 5 4 4 4 3 3 3 3 2 2 2 2 2 1 1 1 1 1 1 0 0 0 -0 -0 -0 -0 -0 -1 -1 -1 -1 -1
4 4 4 4 4 4 4 4 4 4 3 3 3 2 2 2 2 1 1 1 1 1 1 1 1 0 0 0 0 -0 -0 -1 -1 -1 -1 -1 -1 -1 -2 -2 -2 -2 -2
3 3 3 3 3 3 3 3 3 2 2 2 2 1 1 1 0 0 0 -0 -0 -0 -0 -0 -0 -1 -1 -1 -1 -2 -2 -2 -2 -2 -2 -2 -2 -2 -2 -2 -2 -2 -2
2 2 2 2 2 2 2 2 2 2 1 1 1 0 0 -0 -0 -1 -1 -1 -1 -1 -1 -1 -2 -2 -2 -3 -3 -3 -3 -3 -3 -4 -3 -2 -3 -3 -3 -3 -3 -3 -3
1 2 2 2 2 2 2 1 1 1 1 0 -0 -0 -1 -1 -1 -1 -1 -2 -2 -2 -2 -3 -3 -4 -4 -4 -5 -5 -5 -5 -5 -5 -5 -4 -3 -3 -3 -3 -3 -3 -3
1 1 1 1 1 1 1 1 0 0 -0 -1 -1 -1 -2 -2 -2 -3 -3 -3 -3 -4 -4 -4 -5 -5 -5 -6 -6 -6 -6 -6 -5 -5 -5 -5 -4 -4 -3 -3 -3 -3 -3
1 1 1 1 1 1 0 0 -0 -1 -1 -1 -2 -2 -3 -3 -4 -4 -4 -4 -4 -5 -5 -5 -6 -6 -6 -6 -6 -6 -6 -6 -6 -6 -6 -6 -6 -6 -4 -3 -3 -4 -4

GEFSMA_850_meantemp_054.txt.gz
Temperature
15 15 15 15 15 14 14 14 13 13 13 13 13 13 13 13 13 13 13 13 13 13 13 12 12 12 12 12 12 12 12 12 12 12 12 12 11 11 11 11 11 11 11
15 15 15 15 14 14 14 14 13 13 13 13 13 13 13 13 13 13 12 12 13 12 12 12 12 12 11 11 11 11 11 11 11 11 11 11 11 11 11 11 11 10 10
15 14 14 14 14 14 14 13 13 13 13 13 13 13 13 13 13 13 12 12 12 12 12 12 12 12 11 11 11 10 10 11 10 10 10 10 10 10 10 10 10 10 10
14 14 14 14 14 14 14 13 13 13 13 13 13 13 13 13 13 13 13 13 12 12 12 12 12 12 11 11 11 10 10 10 10 10 10 10 9 9 9 9 9 9 9
14 14 14 14 14 14 14 14 13 13 13 13 13 13 13 13 13 13 13 13 12 12 12 12 12 12 11 11 10 10 10 9 9 9 9 9 9 9 8 8 8 8 8
14 14 14 14 14 14 14 14 13 13 13 13 13 13 13 13 13 13 13 12 12 12 12 12 12 11 11 11 10 10 10 9 9 9 8 8 8 8 8 7 7 7 7
14 14 14 14 14 14 14 13 13 13 13 13 12 12 12 12 12 12 12 12 12 12 12 12 11 11 11 11 10 10 10 9 9 8 8 8 8 7 7 6 6 6 6
15 14 14 14 14 14 14 13 13 13 12 12 12 11 11 12 12 12 12 12 11 11 11 11 11 11 10 10 10 10 9 9 9 8 8 8 7 7 7 6 6 6 5
14 14 14 14 14 14 13 13 13 12 12 12 11 11 11 12 11 11 11 11 11 10 10 10 10 10 10 10 10 9 9 9 8 8 8 8 7 7 6 6 6 5 5
14 14 14 13 13 13 13 13 13 12 12 11 11 11 10 10 10 10 10 10 10 10 9 9 9 9 9 9 9 9 9 9 8 8 8 7 7 7 6 6 5 5 5
13 13 13 13 13 13 12 12 12 12 11 11 10 10 10 10 9 9 9 9 9 9 9 9 8 8 8 8 8 8 8 8 8 8 7 7 7 7 6 6 5 5 5
12 12 12 12 12 12 11 11 11 11 11 10 10 10 9 9 9 9 8 8 8 8 8 8 8 8 7 7 7 7 7 7 7 7 7 7 7 6 6 6 5 5 4
11 11 11 11 11 11 10 10 10 10 10 9 9 9 9 9 8 8 8 8 7 7 7 7 7 7 7 7 7 7 7 7 7 7 6 6 6 6 6 5 5 5 4
11 10 10 10 10 10 9 9 9 9 9 9 8 8 8 8 8 8 7 7 6 6 6 6 6 6 6 6 6 6 6 6 6 6 6 5 5 5 5 5 4 4 4
9 9 9 9 9 9 9 8 8 8 8 8 8 8 7 7 7 7 7 6 6 6 5 5 5 5 5 5 5 5 5 5 5 5 5 5 4 4 4 4 3 3 3
8 8 8 8 8 8 8 8 7 7 7 7 7 7 7 7 7 6 6 6 5 5 4 4 4 4 4 4 4 4 4 4 4 4 4 4 3 3 3 3 3 2 2
7 7 7 7 7 7 7 7 7 7 7 7 7 7 6 6 6 6 6 5 5 5 4 4 4 4 4 4 3 3 3 3 3 3 3 3 3 2 2 2 2 2 2
6 6 6 6 6 6 6 6 6 6 6 6 6 6 6 6 5 5 5 5 5 4 4 3 3 3 3 3 3 2 2 2 2 2 2 2 2 2 2 1 1 1 1
5 5 5 5 5 5 5 5 5 5 5 5 5 5 5 5 5 4 4 4 4 3 3 3 3 2 2 2 2 2 2 2 2 1 1 1 1 1 1 1 1 1 1
4 4 4 5 5 5 5 5 5 5 5 5 5 4 4 4 4 3 3 3 3 2 2 2 2 2 1 1 1 1 1 1 1 1 1 1 1 1 1 0 0 0 0
3 3 4 4 4 4 4 4 4 4 4 4 4 3 3 3 3 2 2 2 1 1 1 1 1 0 0 0 0 0 0 -0 -0 0 0 0 0 0 0 0 0 -0 -0
2 3 3 3 3 4 4 3 3 3 3 3 3 2 2 2 1 1 1 1 1 0 -0 -0 -1 -1 -1 -1 -1 -1 -1 -1 -2 -1 -1 -1 -1 -1 -1 -1 -1 -1 -1
2 2 2 2 2 3 3 3 3 3 2 2 2 1 1 1 0 0 -0 -0 -0 -1 -1 -1 -2 -2 -2 -2 -2 -2 -2 -3 -3 -3 -2 -2 -2 -2 -2 -2 -1 -1 -2
1 1 1 2 2 2 2 2 2 2 2 1 1 1 0 -0 -0 -1 -1 -1 -2 -2 -2 -2 -3 -3 -3 -3 -3 -3 -4 -3 -4 -4 -3 -3 -3 -3 -3 -3 -2 -2 -2
1 1 1 1 1 1 1 1 1 1 1 1 1 0 -0 -1 -1 -1 -2 -2 -3 -3 -3 -3 -3 -3 -3 -3 -4 -4 -5 -5 -5 -5 -4 -4 -4 -4 -3 -3 -3 -3 -3
0 1 1 1 1 1 1 1 1 1 0 0 -0 -1 -1 -1 -2 -2 -3 -3 -4 -4 -4 -4 -4 -4 -4 -4 -4 -5 -5 -5 -6 -6 -5 -5 -5 -5 -4 -4 -4 -4 -3

GEFSMA_850_meantemp_060.txt.gz
Temperature
15 15 15 15 15 15 15 15 15 14 14 14 14 14 14 14 14 13 13 13 13 13 13 13 13 13 12 12 12 12 12 12 12 12 12 12 12 12 12 12 12 11 11
15 15 14 14 14 14 14 14 14 14 14 14 14 14 13 13 13 13 13 13 13 13 13 13 12 12 12 12 12 12 12 11 11 11 11 11 11 11 11 11 11 11 11
14 14 14 14 14 14 14 14 14 14 14 14 14 13 13 13 13 13 13 13 13 13 13 12 12 12 12 12 11 11 11 11 11 11 11 11 11 11 11 11 10 10 10
14 14 14 14 14 14 14 14 14 13 13 13 13 13 13 13 13 13 13 13 13 12 12 12 12 12 11 11 11 11 11 11 11 10 10 10 10 10 10 10 10 10 9
14 14 14 14 14 14 13 13 13 13 13 13 13 13 13 13 13 13 13 13 12 12 12 12 11 11 11 11 11 11 11 11 10 10 10 10 10 9 9 9 9 9 9
14 14 14 14 14 14 13 13 13 13 13 13 13 13 13 13 13 13 13 13 12 12 12 11 11 11 11 11 11 11 11 10 10 10 10 9 9 9 9 9 9 9 8
14 14 14 14 14 14 13 13 13 13 13 13 12 12 13 13 13 13 13 12 12 12 11 11 11 10 10 10 10 10 10 10 10 10 9 9 9 9 9 9 9 8 8
14 14 14 14 14 14 14 13 13 13 13 12 12 11 11 12 12 12 12 12 12 11 11 10 10 10 10 9 9 10 10 10 10 10 9 9 9 9 8 8 8 8 7
14 14 14 14 14 14 13 13 13 12 12 12 11 11 11 11 12 12 11 11 11 10 10 10 9 9 9 9 9 9 9 9 9 9 9 9 9 9 8 8 8 7 7
14 14 14 14 14 13 13 13 12 12 11 11 11 11 11 10 10 10 10 10 10 10 10 9 9 8 8 8 8 8 8 8 8 9 9 9 9 8 8 8 8 7 7
14 14 14 14 13 13 13 12 12 11 11 11 10 10 10 10 10 10 10 10 10 9 9 9 8 8 7 7 7 7 7 7 8 8 8 8 8 8 8 8 8 7 7
13 13 13 13 13 12 12 12 11 11 10 10 10 10 9 9 9 9 9 9 9 9 8 8 8 7 7 7 7 7 7 7 7 7 7 7 8 8 8 7 7 7 7
13 13 12 12 12 11 11 11 10 10 10 9 9 9 9 9 8 8 8 8 8 8 8 7 7 7 6 6 6 6 6 6 6 6 6 7 7 7 7 7 7 6 6
12 11 11 11 11 10 10 10 9 9 9 9 8 8 8 8 8 8 8 7 7 7 7 6 6 6 6 6 6 6 5 6 6 6 6 6 6 6 6 6 6 6 6
11 11 10 10 9 9 9 9 8 8 8 8 7 7 7 7 7 7 7 7 6 6 6 6 5 5 5 5 5 5 5 5 5 5 5 5 5 5 5 5 5 5 5
10 10 9 9 8 8 8 8 7 7 7 7 7 7 7 6 6 6 6 6 6 5 5 5 5 4 4 4 4 4 4 4 4 4 4 4 4 4 4 4 4 4 4
9 8 8 7 7 7 7 7 6 6 6 6 6 6 6 6 6 6 6 6 5 5 4 4 4 4 4 4 4 4 3 3 3 3 3 3 3 3 3 3 3 3 3
8 7 7 6 6 6 6 6 6 5 5 5 5 5 5 5 5 5 5 5 5 5 4 3 3 3 3 3 3 3 3 3 2 2 2 2 2 2 3 3 3 3 2
6 6 5 5 5 5 5 5 5 5 5 5 5 5 5 5 5 5 5 4 4 4 4 3 3 3 3 2 2 2 2 2 2 2 2 2 2 2 2 2 2 2 2
5 4 4 4 4 5 4 4 4 4 4 4 4 4 4 4 4 4 4 4 3 3 3 3 2 2 2 1 1 2 1 1 1 1 1 1 1 1 1 1 1 1 1
4 3 3 3 4 4 4 4 4 4 4 4 4 3 3 3 3 3 3 3 2 2 2 1 1 1 0 0 0 1 0 1 0 0 0 0 1 1 1 1 1 1 1
2 2 2 2 3 3 3 3 3 3 3 3 3 3 3 2 2 2 2 2 2 1 1 1 0 -0 -1 -1 -1 -1 -0 -0 -1 -1 -0 -0 -0 -0 -0 -0 -0 -0 -0
2 1 1 2 2 2 2 3 2 2 2 2 2 2 2 2 2 2 2 1 1 1 0 -0 -0 -1 -1 -1 -1 -1 -1 -1 -1 -2 -1 -1 -1 -1 -1 -1 -1 -1 -1
1 1 1 1 2 2 2 2 2 2 2 2 2 2 1 1 1 1 1 1 0 -0 -0 -1 -1 -1 -1 -2 -2 -2 -2 -2 -2 -2 -2 -2 -2 -2 -2 -2 -2 -2 -2
0 1 1 1 1 1 1 1 1 1 1 1 1 1 1 1 1 0 0 0 -0 -0 -1 -1 -1 -2 -2 -2 -2 -2 -2 -3 -3 -3 -3 -3 -3 -2 -2 -2 -2 -2 -3
0 0 0 0 1 1 1 1 1 1 1 1 1 1 1 0 0 -0 -0 -0 -1 -1 -1 -1 -2 -2 -2 -2 -3 -3 -3 -3 -4 -4 -4 -4 -4 -3 -3 -3 -3 -3 -3

GEFSMA_850_meantemp_066.txt.gz
Temperature
16 16 16 16 16 16 16 16 15 15 15 14 14 14 14 14 14 13 13 13 13 13 12 12 12 12 12 12 12 12 12 11 11 11 11 11 12 12 12 12 12 11 11
16 16 16 16 16 15 15 15 15 14 14 14 14 14 14 14 14 13 13 13 13 12 12 12 12 12 12 12 11 11 11 11 11 11 11 11 11 11 11 11 11 11 11
15 15 15 15 15 15 14 14 14 14 14 14 14 13 13 13 13 13 13 13 12 12 12 12 12 12 11 11 11 11 11 11 11 11 11 10 10 10 10 10 10 10 10
14 14 15 14 14 14 14 14 14 14 13 13 13 13 13 13 13 13 13 13 12 12 12 12 11 11 11 11 11 11 11 11 10 10 10 10 10 10 10 10 10 10 10
14 14 14 14 14 14 14 13 13 13 13 13 13 13 13 13 13 13 13 13 12 12 12 11 11 11 11 11 11 11 11 10 10 10 10 10 10 10 10 10 10 9 9
14 14 14 14 14 14 13 13 13 13 13 13 13 13 13 13 13 13 13 12 12 12 11 11 11 11 11 10 10 10 10 10 10 10 10 10 10 9 9 9 9 9 9
14 14 14 14 14 14 14 13 13 13 13 13 12 12 13 13 13 13 13 12 12 11 11 11 11 11 10 10 10 10 9 9 9 9 9 9 9 9 9 9 9 9 9
14 14 14 14 14 14 14 14 13 13 13 12 12 11 11 12 12 12 12 12 11 11 11 11 10 10 10 9 9 9 9 9 9 9 9 9 9 9 9 9 9 8 8
14 14 14 14 14 14 14 14 13 13 13 12 12 11 11 11 11 11 11 11 11 10 10 10 10 9 9 9 9 8 8 8 8 8 8 8 8 8 9 9 9 8 8
14 14 14 14 14 14 14 14 13 13 12 12 12 11 10 10 10 10 10 10 10 10 9 9 9 9 8 8 8 8 8 8 8 8 8 8 8 8 8 8 8 8 8
14 14 14 14 14 14 14 13 13 12 12 12 11 11 10 10 9 9 9 9 9 9 9 8 8 8 8 7 7 7 7 7 7 7 7 7 7 8 8 8 8 8 8
14 14 14 14 13 13 13 13 12 12 12 11 11 10 9 9 9 9 8 9 8 8 8 8 8 7 7 7 7 7 6 6 6 6 6 6 7 7 7 7 7 7 8
14 14 13 13 13 13 12 12 12 11 11 10 10 9 9 9 8 8 8 8 8 7 7 7 7 7 7 6 6 6 6 6 6 6 6 6 6 6 7 7 7 7 7
13 13 13 13 12 12 12 11 11 11 10 9 9 9 8 8 8 8 7 7 7 7 7 6 6 6 6 6 5 5 5 5 5 5 5 5 6 6 6 6 6 6 6
12 12 12 12 12 11 11 11 10 10 9 9 8 8 7 7 7 7 7 6 6 6 6 6 5 5 5 5 4 4 4 5 4 5 5 5 5 5 5 5 5 5 6
12 12 11 11 11 10 10 10 9 8 8 7 7 7 7 6 6 6 6 6 6 6 5 5 5 4 4 4 4 4 4 4 4 4 4 4 4 4 4 4 5 5 5
11 11 11 10 10 9 9 8 8 7 7 6 6 6 6 6 6 5 5 5 5 5 4 4 4 4 4 3 3 3 3 3 3 3 3 3 3 3 4 4 4 4 4
10 10 10 9 9 8 8 7 6 6 5 5 5 5 5 5 5 5 5 5 4 4 4 4 3 3 3 3 3 3 3 3 2 2 2 2 2 3 3 3 3 3 3
9 9 9 8 8 7 6 5 5 5 4 4 4 4 4 4 4 4 4 4 4 4 4 3 3 3 2 2 2 2 2 2 2 2 2 2 2 2 2 2 3 3 3
9 8 8 7 6 5 5 4 4 4 4 4 4 3 3 3 3 3 3 3 3 3 3 3 2 2 2 2 1 1 1 1 1 1 1 1 1 1 2 2 2 2 2
8 7 6 5 4 4 4 3 3 3 3 3 3 3 3 3 3 3 2 3 2 2 2 2 2 1 1 1 1 0 0 0 1 1 0 0 1 1 1 1 1 1 1
7 6 5 4 3 3 2 2 2 2 2 2 2 2 2 2 2 2 2 2 2 2 2 1 1 1 1 0 -0 -0 -0 -0 -0 -0 -0 -0 -0 0 0 0 0 0 1
5 4 3 3 2 2 2 1 2 2 2 2 1 1 1 1 1 1 1 1 1 1 1 1 1 0 -0 -0 -1 -1 -1 -1 -1 -1 -1 -0 -1 -1 -1 -0 -0 -0 -0
4 3 2 2 1 1 1 1 1 1 1 1 1 1 1 1 1 1 1 1 1 1 1 1 0 -0 -1 -1 -1 -1 -1 -1 -1 -1 -1 -1 -1 -1 -1 -1 -1 -1 -1
3 2 1 1 1 0 0 0 1 1 1 0 1 1 0 0 0 0 0 1 1 0 0 -0 -0 -1 -1 -1 -1 -1 -1 -1 -1 -1 -2 -2 -2 -1 -1 -2 -2 -2 -2
2 1 1 0 0 0 0 0 0 0 0 0 0 0 0 0 0 0 0 0 -0 -0 -0 -1 -1 -1 -1 -1 -1 -2 -2 -2 -2 -2 -2 -2 -2 -2 -2 -2 -2 -3 -3

GEFSMA_850_meantemp_072.txt.gz
Temperature
16 16 16 16 16 16 15 15 15 15 14 14 14 14 14 14 14 13 13 13 13 12 12 12 12 12 12 12 12 12 11 11 11 11 11 11 11 11 11 11 11 11 11
15 15 15 15 15 15 15 15 14 14 14 14 14 14 14 13 13 13 13 13 13 12 12 12 12 12 12 12 11 11 11 11 11 11 11 11 11 10 11 11 11 11 11
15 15 15 15 15 14 14 14 14 14 14 14 14 13 13 13 13 13 13 13 13 12 12 12 12 12 11 11 11 11 11 11 11 11 10 10 10 10 10 10 10 10 10
14 14 14 14 14 14 14 14 14 14 14 13 13 13 13 13 13 13 13 13 13 12 12 12 12 11 11 11 11 11 11 10 10 10 10 10 10 10 10 10 10 10 10
14 14 14 14 13 13 13 13 13 13 13 13 13 13 13 13 13 13 13 13 13 12 12 12 11 11 11 11 11 10 10 10 10 10 10 10 10 10 10 9 9 9 9
14 14 14 13 13 13 13 13 13 13 13 13 13 13 13 13 13 13 13 13 12 12 12 11 11 11 11 11 10 10 10 9 9 9 9 9 9 9 9 9 9 9 9
13 13 13 13 13 13 13 13 13 13 13 13 13 13 13 13 13 13 13 12 12 12 11 11 11 11 10 10 10 10 9 9 9 9 9 9 9 9 9 9 9 9 9
13 13 13 13 13 13 13 13 13 13 13 13 12 12 12 12 12 12 12 11 11 11 11 11 10 10 10 10 9 9 9 9 8 8 8 8 8 8 9 9 9 9 9
13 13 13 13 13 13 13 13 13 13 13 13 12 12 11 11 11 11 10 10 10 10 10 10 10 10 9 9 9 9 8 8 8 8 8 8 8 8 8 8 8 8 8
13 13 13 13 13 13 13 13 13 13 13 12 12 12 11 10 10 10 9 9 9 9 9 9 9 9 9 8 8 8 8 8 7 7 7 7 7 7 7 8 8 8 8
13 13 13 13 13 13 13 13 13 13 12 12 12 11 11 10 9 9 8 9 9 9 9 8 8 8 8 8 8 7 7 7 7 7 7 7 7 7 7 7 7 8 8
13 13 13 13 13 13 13 13 12 12 12 12 11 11 10 9 9 8 8 8 8 8 8 8 8 7 7 7 7 7 7 6 6 6 6 6 6 6 7 7 7 7 7
13 13 13 13 13 12 12 12 12 12 11 11 11 10 10 9 8 8 7 7 7 7 7 7 7 7 7 6 6 6 6 6 6 5 5 6 6 6 6 6 7 7 7
12 12 12 12 12 12 12 12 11 11 11 10 10 9 9 8 8 7 7 6 6 6 6 6 6 6 6 6 6 5 5 5 5 5 5 5 5 6 6 6 6 6 7
12 12 12 12 12 12 11 11 11 11 10 10 9 8 8 7 7 7 6 6 6 5 6 6 6 6 5 5 5 5 4 4 4 4 4 4 5 5 5 5 5 6 6
11 11 11 11 11 11 11 11 10 10 9 9 8 8 7 7 6 6 6 5 5 5 5 5 5 5 5 4 4 4 4 4 3 3 4 4 4 4 4 4 5 5 5
11 11 11 11 11 10 10 10 9 9 8 8 7 6 6 5 5 5 5 5 5 4 4 4 4 4 4 4 3 3 3 3 3 3 3 3 3 3 3 4 4 4 4
10 10 10 10 10 10 9 9 8 8 7 6 6 5 5 4 4 4 4 4 4 4 4 4 3 3 3 3 3 3 2 2 2 2 2 2 2 2 3 3 3 3 4
9 9 9 9 9 9 9 8 8 7 6 5 4 4 4 4 3 3 3 3 3 3 3 3 3 3 2 2 2 2 2 2 2 2 1 2 2 2 2 2 3 3 3
9 9 9 9 9 8 8 7 6 5 4 4 3 3 3 3 3 3 3 3 3 3 2 2 2 2 2 2 1 1 1 1 1 1 1 1 1 1 2 2 2 2 2
8 8 8 8 8 7 7 6 5 4 3 3 2 2 2 2 2 2 2 2 2 2 2 2 1 1 1 1 1 1 0 0 0 0 1 1 1 1 1 1 1 1 2
7 7 7 7 7 6 5 5 4 3 3 2 2 1 1 1 1 1 1 2 2 1 1 1 1 1 1 1 0 0 -0 -0 -0 0 0 0 0 0 0 0 0 1 1
7 7 7 6 6 5 4 4 3 2 2 1 1 1 1 1 1 1 1 1 1 1 1 1 1 0 0 -0 -0 -0 -0 -0 -0 -0 -0 -0 -0 -0 -0 -0 -0 0 0
6 6 6 5 5 4 3 3 2 2 1 1 1 1 1 0 0 0 0 0 0 0 0 0 0 -0 -0 -0 -1 -1 -1 -1 -1 -1 -1 -1 -1 -1 -1 -1 -1 -1 -1
5 5 5 4 4 3 2 2 2 1 1 0 0 0 0 -0 -0 -0 -0 -0 0 0 0 -0 -0 -0 -1 -1 -1 -1 -1 -1 -1 -1 -1 -1 -1 -1 -1 -1 -1 -1 -1
4 4 4 3 3 2 2 1 1 1 0 0 0 0 -0 -0 -0 -0 -0 -0 -0 -0 -0 -0 -1 -1 -1 -1 -1 -1 -1 -1 -1 -1 -1 -1 -1 -1 -1 -1 -2 -2 -2